This is the latest recevied weather packets stored in our database for station/object WD4IXD. If no packets are shown the sender has not sent any weather packets the latest 10 day(s).
| Time | Temp. | Humidity | Pressure | Rain* | Wind** | Luminosity | Snow |
|---|---|---|---|---|---|---|---|
| 1777494004 | 12.22° C | 59% | 1018.5 hPa | 0 mm | - | 390 W/m² | - |
| 1777493715 | 12.22° C | 62% | 1018.6 hPa | 0 mm | - | 373 W/m² | - |
| 1777493415 | 11.67° C | 62% | 1018.5 hPa | 0 mm | - | 631 W/m² | - |
| 1777493104 | 11.11° C | 64% | 1018.5 hPa | 0 mm | - | 772 W/m² | - |
| 1777492815 | 10.56° C | 64% | 1018.3 hPa | 0 mm | - | 373 W/m² | - |
| 1777492515 | 11.11° C | 63% | 1018.6 hPa | 0 mm | - | 171 W/m² | - |
| 1777492215 | 11.11° C | 60% | 1018.3 hPa | 0 mm | - | 155 W/m² | - |
| 1777491904 | 11.67° C | 59% | 1018.3 hPa | 0 mm | - | 225 W/m² | - |
| 1777491615 | 11.67° C | 59% | 1018.3 hPa | 0 mm | - | 272 W/m² | - |
| 1777491304 | 11.67° C | 58% | 1018.4 hPa | 0 mm | - | 267 W/m² | - |
| 1777491004 | 11.67° C | 57% | 1018.4 hPa | 0 mm | - | 287 W/m² | - |
| 1777490704 | 12.22° C | 56% | 1018.2 hPa | 0 mm | - | 338 W/m² | - |
| 1777490415 | 12.22° C | 55% | 1018.2 hPa | 0 mm | - | 401 W/m² | - |
| 1777490104 | 12.22° C | 56% | 1018.1 hPa | 0 mm | - | 429 W/m² | - |
| 1777489815 | 12.22° C | 53% | 1018.2 hPa | 0 mm | - | 313 W/m² | - |
| 1777489504 | 13.33° C | 50% | 1018.4 hPa | 0 mm | - | 239 W/m² | - |
| 1777489215 | 13.89° C | 49% | 1018.4 hPa | 0 mm | - | 276 W/m² | - |
| 1777488904 | 13.89° C | 44% | 1018.3 hPa | 0 mm | - | 327 W/m² | - |
| 1777488604 | 13.89° C | 46% | 1018.4 hPa | 0 mm | - | 327 W/m² | - |
| 1777488304 | 13.89° C | 47% | 1018.5 hPa | 0 mm | - | 503 W/m² | - |
| 1777488015 | 13.33° C | 46% | 1018.5 hPa | 0 mm | - | 413 W/m² | - |
| 1777487704 | 13.33° C | 48% | 1018.5 hPa | 0 mm | - | 336 W/m² | - |
| 1777487415 | 13.33° C | 47% | 1018.5 hPa | 0 mm | - | 302 W/m² | - |
| 1777487104 | 13.33° C | 47% | 1018.6 hPa | 0 mm | - | 374 W/m² | - |
| 1777486815 | 13.33° C | 48% | 1018.7 hPa | 0 mm | - | 283 W/m² | - |
* Rain latest hour (hover to see other rain measurements)
** Current wind speed in m/s (hover to see current wind gust speed)